FIN4E EFHK-ESGG

Flight info

Callsign FIN4E
Flight time 1h 9m
Altitude 38000
Route ADIVO Y365 POGOK DCT RUNGA DCT TUSNI DCT MOXAM
Aircraft A319/M-SDE3FGHIRWY/LB1

Departure

Time 2026-04-20 18:50
Airport Helsinki Vantaa Airport (EFHK)

Arrival

Time 2026-04-20 19:59
Airport Göteborg Landvetter Airport (ESGG)
Time Latitude Longitude Altitude Speed Heading
2026-04-20 18:37 60.32104 24.96755 167 ft 0 kts 137°
2026-04-20 18:38 60.32104 24.96754 167 ft 0 kts 136°
2026-04-20 18:45 60.32099 24.96765 167 ft 2 kts 137°
2026-04-20 18:45 60.32081 24.96783 167 ft 4 kts 169°
2026-04-20 18:45 60.32042 24.96734 167 ft 9 kts 225°
2026-04-20 18:45 60.31985 24.96610 167 ft 15 kts 227°
2026-04-20 18:46 60.31908 24.96440 167 ft 17 kts 227°
2026-04-20 18:46 60.31853 24.96234 167 ft 17 kts 271°
2026-04-20 18:46 60.31921 24.96035 168 ft 17 kts 305°
2026-04-20 18:46 60.31879 24.95849 169 ft 16 kts 227°
2026-04-20 18:47 60.31801 24.95676 170 ft 17 kts 228°
2026-04-20 18:47 60.31722 24.95504 171 ft 17 kts 227°
2026-04-20 18:47 60.31641 24.95325 170 ft 18 kts 227°
2026-04-20 18:47 60.31553 24.95133 170 ft 19 kts 227°
2026-04-20 18:48 60.31460 24.94927 168 ft 21 kts 227°
2026-04-20 18:48 60.31409 24.94724 163 ft 8 kts 284°
2026-04-20 18:48 60.31425 24.94678 164 ft 3 kts 315°
2026-04-20 18:48 60.31432 24.94666 164 ft 1 kts 316°
2026-04-20 18:49 60.31438 24.94653 164 ft 2 kts 316°
2026-04-20 18:49 60.31470 24.94593 163 ft 12 kts 317°
2026-04-20 18:49 60.31557 24.94575 164 ft 15 kts 44°
2026-04-20 18:49 60.31637 24.94754 167 ft 29 kts 47°
2026-04-20 18:50 60.31969 24.95484 172 ft 110 kts 47°
2026-04-20 18:50 60.32623 24.96920 364 ft 152 kts 46°
2026-04-20 18:50 60.33324 24.98513 1141 ft 151 kts 46°
2026-04-20 18:50 60.34053 25.00128 1809 ft 165 kts 46°
2026-04-20 18:51 60.34887 25.01952 2287 ft 190 kts 46°
2026-04-20 18:51 60.35839 25.04037 2867 ft 214 kts 47°
2026-04-20 18:51 60.36900 25.06371 3552 ft 234 kts 47°
2026-04-20 18:51 60.38029 25.08855 3921 ft 242 kts 47°
2026-04-20 18:52 60.39305 25.11444 4003 ft 282 kts 37°
2026-04-20 18:52 60.41225 25.12954 4028 ft 313 kts
2026-04-20 18:52 60.43402 25.13211 5212 ft 307 kts
2026-04-20 18:52 60.45473 25.13244 6884 ft 288 kts
2026-04-20 18:53 60.47411 25.13108 8455 ft 274 kts 354°
2026-04-20 18:53 60.49173 25.11605 9637 ft 283 kts 328°
2026-04-20 18:53 60.50533 25.08644 10596 ft 295 kts 305°
2026-04-20 18:53 60.51217 25.04651 11464 ft 309 kts 279°
2026-04-20 18:54 60.51004 25.00259 12324 ft 319 kts 258°
2026-04-20 18:54 60.50462 24.95824 12962 ft 334 kts 258°
2026-04-20 18:54 60.49874 24.91091 13265 ft 358 kts 258°
2026-04-20 18:54 60.49247 24.86059 13683 ft 375 kts 258°
2026-04-20 18:55 60.48603 24.80881 14360 ft 382 kts 258°
2026-04-20 18:55 60.47950 24.75615 15069 ft 387 kts 258°
2026-04-20 18:55 60.47293 24.70294 15781 ft 392 kts 258°
2026-04-20 18:55 60.46843 24.66658 16257 ft 395 kts 258°
2026-04-20 18:56 60.46171 24.61230 16957 ft 400 kts 258°
2026-04-20 18:56 60.45492 24.55747 17663 ft 404 kts 258°
2026-04-20 18:56 60.44799 24.50175 18357 ft 409 kts 258°
2026-04-20 18:56 60.44099 24.44557 18985 ft 414 kts 258°
2026-04-20 18:57 60.43386 24.38880 19580 ft 418 kts 257°
2026-04-20 18:57 60.42659 24.33143 20180 ft 423 kts 257°
2026-04-20 18:57 60.41922 24.27347 20779 ft 428 kts 257°
2026-04-20 18:57 60.41172 24.21494 21351 ft 432 kts 257°
2026-04-20 18:58 60.40411 24.15586 21942 ft 436 kts 257°
2026-04-20 18:58 60.39641 24.09619 22507 ft 441 kts 257°
2026-04-20 18:58 60.38862 24.03593 23063 ft 445 kts 257°
2026-04-20 18:58 60.38076 23.97507 23595 ft 450 kts 257°
2026-04-20 18:59 60.37280 23.91372 24085 ft 454 kts 257°
2026-04-20 18:59 60.36471 23.85168 24552 ft 458 kts 257°
2026-04-20 18:59 60.35653 23.78932 24993 ft 461 kts 256°
2026-04-20 18:59 60.34824 23.72646 25434 ft 464 kts 256°
2026-04-20 19:00 60.33987 23.66320 25878 ft 468 kts 256°
2026-04-20 19:00 60.33140 23.59956 26318 ft 471 kts 256°
2026-04-20 19:00 60.32286 23.53553 26760 ft 474 kts 256°
2026-04-20 19:00 60.31426 23.47110 27200 ft 477 kts 256°
2026-04-20 19:01 60.30558 23.40627 27615 ft 480 kts 256°
2026-04-20 19:01 60.29684 23.34114 28071 ft 482 kts 256°
2026-04-20 19:01 60.28799 23.27572 28506 ft 485 kts 255°
2026-04-20 19:01 60.27903 23.20990 28921 ft 488 kts 255°
2026-04-20 19:02 60.26998 23.14380 29320 ft 491 kts 255°
2026-04-20 19:02 60.26081 23.07742 29716 ft 494 kts 255°
2026-04-20 19:02 60.25155 23.01062 30095 ft 497 kts 255°
2026-04-20 19:02 60.24225 22.94341 30456 ft 499 kts 255°
2026-04-20 19:03 60.23290 22.87597 30773 ft 503 kts 255°
2026-04-20 19:03 60.22346 22.80796 31062 ft 506 kts 255°
2026-04-20 19:03 60.21394 22.73987 31467 ft 505 kts 255°
2026-04-20 19:03 60.20437 22.67190 31941 ft 504 kts 254°
2026-04-20 19:04 60.19483 22.60447 32412 ft 502 kts 254°
2026-04-20 19:04 60.18521 22.53688 32890 ft 500 kts 253°
2026-04-20 19:04 60.17563 22.47000 33423 ft 498 kts 253°
2026-04-20 19:04 60.16606 22.40338 33927 ft 496 kts 253°
2026-04-20 19:05 60.15651 22.33695 34406 ft 494 kts 253°
2026-04-20 19:05 60.14697 22.27085 34818 ft 492 kts 253°
2026-04-20 19:05 60.13744 22.20500 35234 ft 491 kts 253°
2026-04-20 19:05 60.12791 22.13940 35633 ft 489 kts 254°
2026-04-20 19:06 60.11840 22.07404 36042 ft 487 kts 254°
2026-04-20 19:06 60.10888 22.00893 36416 ft 486 kts 254°
2026-04-20 19:06 60.09933 21.94408 36783 ft 484 kts 254°
2026-04-20 19:06 60.08978 21.87945 37135 ft 483 kts 254°
2026-04-20 19:07 60.08024 21.81500 37461 ft 482 kts 254°
2026-04-20 19:07 60.07068 21.75074 37790 ft 481 kts 254°
2026-04-20 19:07 60.06109 21.68661 38055 ft 481 kts 254°
2026-04-20 19:07 60.05159 21.62329 38296 ft 481 kts 254°
2026-04-20 19:08 60.02248 21.43125 38358 ft 481 kts 254°
2026-04-20 19:09 60.00299 21.30351 38367 ft 480 kts 253°
2026-04-20 19:09 59.98342 21.17597 38366 ft 480 kts 253°
2026-04-20 19:10 59.96368 21.04850 38377 ft 480 kts 253°
2026-04-20 19:10 59.94380 20.92134 38361 ft 480 kts 253°
2026-04-20 19:11 59.92383 20.79419 38368 ft 480 kts 253°
2026-04-20 19:11 59.90377 20.66727 38377 ft 480 kts 253°
2026-04-20 19:12 59.88360 20.54048 38381 ft 480 kts 253°
2026-04-20 19:12 59.86326 20.41388 38394 ft 480 kts 253°
2026-04-20 19:13 59.84286 20.28840 38402 ft 480 kts 252°
2026-04-20 19:13 59.82222 20.16224 38400 ft 480 kts 252°
2026-04-20 19:14 59.80155 20.03619 38403 ft 479 kts 252°
2026-04-20 19:14 59.78080 19.91042 38404 ft 479 kts 252°
2026-04-20 19:15 59.75989 19.78501 38400 ft 479 kts 252°
2026-04-20 19:15 59.73954 19.65939 38403 ft 478 kts 255°
2026-04-20 19:16 59.72275 19.53178 38403 ft 478 kts 257°
2026-04-20 19:16 59.70704 19.40377 38407 ft 478 kts 256°
2026-04-20 19:17 59.69032 19.27627 38411 ft 478 kts 256°
2026-04-20 19:17 59.67283 19.14924 38417 ft 479 kts 255°
2026-04-20 19:18 59.65509 19.02234 38430 ft 479 kts 255°
2026-04-20 19:18 59.63745 18.89573 38421 ft 479 kts 255°
2026-04-20 19:19 59.61979 18.76867 38420 ft 479 kts 255°
2026-04-20 19:19 59.60201 18.64166 38422 ft 480 kts 255°
2026-04-20 19:20 59.58404 18.51475 38410 ft 480 kts 255°
2026-04-20 19:20 59.56590 18.38804 38416 ft 480 kts 255°
2026-04-20 19:21 59.54762 18.26155 38418 ft 480 kts 254°
2026-04-20 19:21 59.52931 18.13519 38427 ft 479 kts 254°
2026-04-20 19:22 59.51094 18.00902 38426 ft 479 kts 254°
2026-04-20 19:22 59.49232 17.88310 38435 ft 479 kts 254°
2026-04-20 19:23 59.47358 17.75729 38410 ft 479 kts 254°
2026-04-20 19:23 59.45478 17.63183 38419 ft 478 kts 254°
2026-04-20 19:24 59.43588 17.50652 38417 ft 479 kts 253°
2026-04-20 19:24 59.41686 17.38111 38428 ft 482 kts 253°
2026-04-20 19:25 59.39764 17.25520 38444 ft 481 kts 253°
2026-04-20 19:25 59.37831 17.12989 38432 ft 479 kts 253°
2026-04-20 19:26 59.35884 17.00492 38411 ft 478 kts 253°
2026-04-20 19:26 59.33925 16.88040 38428 ft 478 kts 253°
2026-04-20 19:27 59.31699 16.75801 38441 ft 477 kts 248°
2026-04-20 19:27 59.29190 16.63869 38432 ft 477 kts 247°
2026-04-20 19:28 59.26629 16.51797 38426 ft 477 kts 247°
2026-04-20 19:28 59.24096 16.39909 38430 ft 477 kts 247°
2026-04-20 19:29 59.21537 16.27940 38427 ft 477 kts 247°
2026-04-20 19:29 59.18970 16.15994 38424 ft 477 kts 247°
2026-04-20 19:30 59.16386 16.04079 38438 ft 477 kts 247°
2026-04-20 19:30 59.13786 15.92186 38433 ft 477 kts 247°
2026-04-20 19:31 59.11184 15.80305 38428 ft 477 kts 247°
2026-04-20 19:31 59.08581 15.68426 38431 ft 477 kts 247°
2026-04-20 19:32 59.05965 15.56573 38431 ft 477 kts 246°
2026-04-20 19:32 59.03320 15.44753 38416 ft 477 kts 246°
2026-04-20 19:33 59.00673 15.32948 38431 ft 477 kts 246°
2026-04-20 19:33 58.98015 15.21160 38442 ft 477 kts 246°
2026-04-20 19:34 58.95340 15.09408 38443 ft 477 kts 246°
2026-04-20 19:34 58.92659 14.97666 38431 ft 477 kts 246°
2026-04-20 19:35 58.89977 14.85941 38426 ft 477 kts 246°
2026-04-20 19:35 58.87276 14.74237 38426 ft 477 kts 245°
2026-04-20 19:36 58.84563 14.62541 38421 ft 477 kts 245°
2026-04-20 19:36 58.81852 14.50875 38427 ft 476 kts 245°
2026-04-20 19:37 58.79126 14.39225 38443 ft 476 kts 245°
2026-04-20 19:37 58.76391 14.27602 38441 ft 476 kts 245°
2026-04-20 19:38 58.73638 14.16007 38435 ft 476 kts 245°
2026-04-20 19:38 58.70877 14.04420 38424 ft 476 kts 245°
2026-04-20 19:39 58.68107 13.92856 38425 ft 476 kts 245°
2026-04-20 19:39 58.65327 13.81311 38430 ft 476 kts 245°
2026-04-20 19:39 58.63933 13.75536 38037 ft 478 kts 245°
2026-04-20 19:40 58.62524 13.69719 37145 ft 482 kts 244°
2026-04-20 19:40 58.61106 13.63887 36294 ft 484 kts 244°
2026-04-20 19:40 58.59675 13.58016 35380 ft 489 kts 244°
2026-04-20 19:40 58.58240 13.52131 34733 ft 486 kts 243°
2026-04-20 19:41 58.56805 13.46268 33819 ft 487 kts 243°
2026-04-20 19:41 58.55360 13.40394 32826 ft 488 kts 243°
2026-04-20 19:41 58.53676 13.34757 31830 ft 487 kts 233°
2026-04-20 19:41 58.51582 13.29681 30822 ft 486 kts 225°
2026-04-20 19:42 58.49158 13.25329 29801 ft 483 kts 216°
2026-04-20 19:42 58.46533 13.21358 28733 ft 481 kts 216°
2026-04-20 19:42 58.44767 13.18682 28055 ft 479 kts 216°
2026-04-20 19:42 58.42164 13.14734 27161 ft 475 kts 216°
2026-04-20 19:43 58.38779 13.09605 26268 ft 464 kts 216°
2026-04-20 19:43 58.36273 13.05814 25599 ft 457 kts 216°
2026-04-20 19:43 58.33798 13.02084 24924 ft 452 kts 216°
2026-04-20 19:43 58.31346 12.98398 24265 ft 446 kts 216°
2026-04-20 19:44 58.28921 12.94756 23570 ft 442 kts 216°
2026-04-20 19:44 58.26527 12.91163 22956 ft 435 kts 216°
2026-04-20 19:44 58.24172 12.87636 22394 ft 428 kts 216°
2026-04-20 19:44 58.21843 12.84160 21836 ft 423 kts 216°
2026-04-20 19:45 58.19545 12.80740 21312 ft 418 kts 216°
2026-04-20 19:45 58.17268 12.77356 20788 ft 414 kts 216°
2026-04-20 19:45 58.15012 12.74004 20306 ft 411 kts 216°
2026-04-20 19:45 58.12773 12.70685 19808 ft 407 kts 216°
2026-04-20 19:46 58.11269 12.68459 19474 ft 405 kts 216°
2026-04-20 19:46 58.09058 12.65192 18968 ft 402 kts 216°
2026-04-20 19:46 58.06809 12.62103 18480 ft 397 kts 211°
2026-04-20 19:46 58.04505 12.59276 17946 ft 393 kts 211°
2026-04-20 19:47 58.02202 12.56533 17409 ft 390 kts 210°
2026-04-20 19:47 57.99912 12.53850 16869 ft 386 kts 210°
2026-04-20 19:47 57.97635 12.51193 16316 ft 384 kts 210°
2026-04-20 19:47 57.95368 12.48547 15763 ft 382 kts 210°
2026-04-20 19:48 57.93116 12.45915 15210 ft 380 kts 210°
2026-04-20 19:48 57.90873 12.43293 14644 ft 379 kts 210°
2026-04-20 19:48 57.88639 12.40676 14065 ft 378 kts 210°
2026-04-20 19:48 57.86417 12.38072 13473 ft 375 kts 210°
2026-04-20 19:49 57.84205 12.35484 12899 ft 372 kts 210°
2026-04-20 19:49 57.82015 12.32918 12320 ft 370 kts 210°
2026-04-20 19:49 57.79839 12.30372 11731 ft 367 kts 210°
2026-04-20 19:49 57.77711 12.27887 11165 ft 365 kts 210°
2026-04-20 19:50 57.75589 12.25409 10941 ft 352 kts 210°
2026-04-20 19:50 57.73556 12.23043 10819 ft 337 kts 210°
2026-04-20 19:50 57.71602 12.20775 10692 ft 324 kts 210°
2026-04-20 19:50 57.69718 12.18592 10542 ft 314 kts 210°
2026-04-20 19:51 57.67880 12.16466 10341 ft 307 kts 210°
2026-04-20 19:51 57.66074 12.14380 9950 ft 304 kts 210°
2026-04-20 19:51 57.64279 12.12309 9566 ft 302 kts 209°
2026-04-20 19:51 57.62497 12.10258 9174 ft 300 kts 209°
2026-04-20 19:52 57.60727 12.08223 8795 ft 298 kts 209°
2026-04-20 19:52 57.58969 12.06188 8404 ft 296 kts 209°
2026-04-20 19:52 57.57227 12.04171 8018 ft 294 kts 209°
2026-04-20 19:52 57.55491 12.02214 7627 ft 287 kts 204°
2026-04-20 19:53 57.53639 12.01351 7246 ft 266 kts 174°
2026-04-20 19:53 57.51938 12.02162 6879 ft 244 kts 143°
2026-04-20 19:53 57.50721 12.04161 6486 ft 228 kts 126°
2026-04-20 19:53 57.49826 12.06501 6109 ft 217 kts 116°
2026-04-20 19:54 57.49312 12.08943 5967 ft 192 kts 91°
2026-04-20 19:54 57.49469 12.11267 5827 ft 175 kts 67°
2026-04-20 19:54 57.50124 12.13106 5550 ft 171 kts 44°
2026-04-20 19:54 57.51131 12.14276 5186 ft 172 kts 29°
2026-04-20 19:55 57.52207 12.15241 4703 ft 172 kts 29°
2026-04-20 19:55 57.53282 12.16207 4230 ft 171 kts 29°
2026-04-20 19:55 57.54349 12.17168 3761 ft 170 kts 29°
2026-04-20 19:55 57.55409 12.18125 3326 ft 167 kts 28°
2026-04-20 19:56 57.56414 12.19031 3153 ft 152 kts 28°
2026-04-20 19:56 57.57297 12.19823 2885 ft 134 kts 28°
2026-04-20 19:56 57.58107 12.20561 2526 ft 127 kts 29°
2026-04-20 19:56 57.58894 12.21276 2145 ft 125 kts 28°
2026-04-20 19:57 57.59664 12.21975 1803 ft 121 kts 29°
2026-04-20 19:57 57.60414 12.22653 1598 ft 119 kts 28°
2026-04-20 19:57 57.61159 12.23329 1408 ft 120 kts 27°
2026-04-20 19:57 57.61907 12.24006 1230 ft 119 kts 26°
2026-04-20 19:58 57.62650 12.24684 1054 ft 119 kts 26°
2026-04-20 19:58 57.63396 12.25354 892 ft 119 kts 26°
2026-04-20 19:58 57.64141 12.26031 711 ft 119 kts 25°
2026-04-20 19:58 57.64888 12.26710 550 ft 119 kts 26°
2026-04-20 19:59 57.65601 12.27359 504 ft 105 kts 26°
2026-04-20 19:59 57.66119 12.27831 509 ft 58 kts 26°
2026-04-20 19:59 57.66395 12.28081 511 ft 37 kts 26°
2026-04-20 19:59 57.66590 12.28285 512 ft 27 kts 39°
2026-04-20 20:00 57.66693 12.28512 512 ft 16 kts 56°
2026-04-20 20:00 57.66755 12.28682 513 ft 16 kts 55°
2026-04-20 20:00 57.66806 12.28795 513 ft 8 kts 41°
2026-04-20 20:00 57.66827 12.28883 514 ft 7 kts 99°
2026-04-20 20:01 57.66813 12.28948 516 ft 6 kts 116°
2026-04-20 20:01 57.66778 12.29085 516 ft 14 kts 116°
2026-04-20 20:01 57.66827 12.29214 516 ft 15 kts 26°
2026-04-20 20:01 57.66923 12.29301 516 ft 16 kts 26°
2026-04-20 20:02 57.66994 12.29415 516 ft 10 kts 91°
2026-04-20 20:02 57.66976 12.29483 516 ft 4 kts 120°
2026-04-20 20:02 57.66971 12.29505 516 ft 0 kts 115°